Weather in Erenhot

China     43°38′49″N   111°58′54″E
temp.,
°C
wind,
m/s
gust,
m/s
humid.,
%
clouds,
%
prec.,
mm/h
press.,
hPa
HPBL,
m
8 may, sat
sat823:00+9n10202699 0.0 10051246
02:00+7n61033100 0.0 1007924
05:00+5n610466 0.0 1010751
08:00+6nne67495 0.0 1012710
11:00+10n23355 0.0 10101276
14:00+14wnw2323100 0.0 10081975
17:00+15w331899 0.0 10061969
20:00+14sw221978 0.0 100642
9 may, sun
sun923:00+14sse2220100 0.0 100646
02:00+12ne5527100 0.1 1006343
05:00+10ene2264100 0.6 1006103
08:00+12sse2247100 0.6 1006286
11:00+14nne1244100 0.0 1006987
14:00+17nw2435100 0.0 10042086
17:00+18nnw242499 0.0 10042537
20:00+16nnw5723100 0.0 1005158
10 may, mon
mon1023:00+14n462066 0.0 100771
02:00+12ene22240 0.0 100812
05:00+10sse22270 0.0 100910
08:00+14w23215 0.0 1010226
11:00+19w56160 0.0 10092556
14:00+21w57135 0.0 10073563
17:00+22wsw791213 0.0 10053855
20:00+19sw47140 0.0 100496
11 may, tue
tue1123:00+18ssw9171756 0.0 1003374
02:00+18sw81318100 0.0 1003260
05:00+15nw81438100 0.0 1003535
08:00+11nw10123453 0.0 1007800
11:00+14nw81019100 0.0 10081426
14:00+17nw911928 0.0 10071688
17:00+17nw89999 0.0 10051598
20:00+16nnw5711100 0.0 1006205
12 may, wed
wed1223:00+14nnw2214100 0.0 100712
02:00+12nne3316100 0.0 100716
05:00+10e71140100 0.0 1008282
08:00+11ene7833100 0.0 1008436
11:00+15ene5521100 0.0 1007996
14:00+17ne4417100 0.0 10061266
17:00+17ne5520100 0.0 10051018
20:00+15ne4523100 0.0 100678